When you browse on this site, cookies collect data to enhance your experience and personalize the content and advertising you see.
Visit our Privacy Policy to learn more. By continuing to use the site, you agree to this use of cookies and data.
  • In Latvia
  • List of Countries
  • For 7 days
  • Water Temperature
  • Satellite Maps
  • Weather Map
  • Weather Widgets
  • user-avatar
    Login

    Hourly Weather Popowo

    Today, 19 July, Friday

    Time Temperature Precipitation Wind Pressure Humidity
    00:00 +17°C° 0 mm 2 mps 750 mmHg 70%
    01:00 +17°C° 0 mm 2 mps 750 mmHg 68%
    02:00 +17°C° 0 mm 2 mps 750 mmHg 67%
    03:00 +17°C° 0 mm 2 mps 750 mmHg 66%
    04:00 +17°C° 0 mm 2 mps 750 mmHg 65%
    05:00 +18°C° 0 mm 2 mps 750 mmHg 65%
    06:00 +19°C° 0 mm 2 mps 750 mmHg 64%
    07:00 +20°C° 0 mm 2 mps 750 mmHg 63%
    08:00 +23°C° 0 mm 2 mps 750 mmHg 58%
    09:00 +24°C° 0 mm 2 mps 750 mmHg 53%
    10:00 +26°C° 0 mm 2 mps 750 mmHg 48%
    11:00 +26°C° 0 mm 2 mps 750 mmHg 47%
    12:00 +27°C° 0 mm 2 mps 750 mmHg 45%
    13:00 +27°C° 0 mm 2 mps 750 mmHg 44%
    14:00 +27°C° 0 mm 2 mps 750 mmHg 46%
    15:00 +27°C° 0 mm 2 mps 750 mmHg 48%
    16:00 +26°C° 0 mm 2 mps 750 mmHg 50%
    17:00 +25°C° 0 mm 2 mps 750 mmHg 54%
    18:00 +24°C° 0 mm 2 mps 750 mmHg 59%
    19:00 +23°C° 0 mm 2 mps 750 mmHg 64%
    20:00 +21°C° 0.5 mm 2 mps 750 mmHg 73%
    21:00 +19°C° 0.5 mm 2 mps 750 mmHg 81%
    22:00 +17°C° 0.5 mm 2 mps 750 mmHg 90%
    23:00 +17°C° 0.1 mm 2 mps 751 mmHg 90%

    Tomorrow, 20 July, Saturday

    Time Temperature Precipitation Wind Pressure Humidity
    00:00 +17°C° 0.1 mm 2 mps 751 mmHg 90%
    01:00 +17°C° 0.1 mm 2 mps 751 mmHg 91%
    02:00 +16°C° 0 mm 2 mps 751 mmHg 92%
    03:00 +16°C° 0 mm 2 mps 751 mmHg 94%
    04:00 +16°C° 0 mm 2 mps 751 mmHg 95%
    05:00 +17°C° 0 mm 2 mps 751 mmHg 91%
    06:00 +19°C° 0 mm 2 mps 751 mmHg 87%
    07:00 +20°C° 0 mm 2 mps 751 mmHg 83%
    08:00 +21°C° 0 mm 2 mps 751 mmHg 76%
    09:00 +24°C° 0 mm 3 mps 752 mmHg 68%
    10:00 +25°C° 0 mm 3 mps 752 mmHg 61%
    11:00 +26°C° 0.3 mm 3 mps 752 mmHg 59%
    12:00 +27°C° 0.3 mm 3 mps 751 mmHg 57%
    13:00 +28°C° 0.3 mm 3 mps 751 mmHg 55%
    14:00 +28°C° 0.2 mm 2 mps 751 mmHg 54%
    15:00 +28°C° 0.2 mm 2 mps 751 mmHg 53%
    16:00 +28°C° 0.2 mm 2 mps 751 mmHg 53%
    17:00 +27°C° 0 mm 2 mps 751 mmHg 57%
    18:00 +26°C° 0 mm 2 mps 751 mmHg 61%
    19:00 +24°C° 0 mm 1 mps 751 mmHg 65%
    20:00 +23°C° 0 mm 1 mps 752 mmHg 67%
    21:00 +22°C° 0 mm 1 mps 752 mmHg 69%
    22:00 +19°C° 0 mm 0 mps 752 mmHg 71%
    23:00 +21°C° 0 mm 1 mps 752 mmHg 73%

    Day after tomorrow, 21 July, Sunday

    Time Temperature Precipitation Wind Pressure Humidity
    00:00 +21°C° 0 mm 1 mps 752 mmHg 74%
    01:00 +20°C° 0 mm 2 mps 751 mmHg 76%
    02:00 +19°C° 0 mm 2 mps 751 mmHg 78%
    03:00 +19°C° 0 mm 2 mps 751 mmHg 80%
    04:00 +18°C° 0 mm 2 mps 751 mmHg 82%
    05:00 +20°C° 0.2 mm 2 mps 751 mmHg 80%
    06:00 +21°C° 0.2 mm 2 mps 751 mmHg 77%
    07:00 +22°C° 0.2 mm 3 mps 751 mmHg 75%
    08:00 +24°C° 0.3 mm 2 mps 751 mmHg 73%
    09:00 +25°C° 0.3 mm 2 mps 751 mmHg 71%
    10:00 +27°C° 0.3 mm 2 mps 751 mmHg 68%
    11:00 +27°C° 1.1 mm 3 mps 751 mmHg 66%
    12:00 +28°C° 1.1 mm 4 mps 751 mmHg 63%
    13:00 +29°C° 1.1 mm 5 mps 751 mmHg 60%
    14:00 +28°C° 0.6 mm 5 mps 751 mmHg 60%
    15:00 +28°C° 0.6 mm 5 mps 751 mmHg 60%
    16:00 +28°C° 0.6 mm 5 mps 751 mmHg 60%
    17:00 +26°C° 0.4 mm 5 mps 751 mmHg 66%
    18:00 +25°C° 0.4 mm 4 mps 751 mmHg 72%
    19:00 +22°C° 0.4 mm 4 mps 751 mmHg 78%
    20:00 +21°C° 0.2 mm 4 mps 752 mmHg 82%
    21:00 +20°C° 0.2 mm 4 mps 752 mmHg 86%
    22:00 +19°C° 0.2 mm 4 mps 753 mmHg 90%
    23:00 +19°C° 0 mm 4 mps 753 mmHg 91%

    22 July, Monday

    Time Temperature Precipitation Wind Pressure Humidity
    00:00 +18°C° 0 mm 4 mps 753 mmHg 92%
    01:00 +17°C° 0 mm 4 mps 754 mmHg 92%
    02:00 +17°C° 0 mm 4 mps 754 mmHg 92%
    03:00 +17°C° 0 mm 4 mps 754 mmHg 92%
    04:00 +15°C° 0 mm 4 mps 754 mmHg 91%
    05:00 +16°C° 0 mm 5 mps 754 mmHg 89%
    06:00 +16°C° 0 mm 5 mps 755 mmHg 87%
    07:00 +17°C° 0 mm 6 mps 755 mmHg 85%
    08:00 +19°C° 0 mm 6 mps 755 mmHg 79%
    09:00 +20°C° 0 mm 6 mps 756 mmHg 74%
    10:00 +21°C° 0 mm 6 mps 756 mmHg 68%
    11:00 +22°C° 0 mm 6 mps 756 mmHg 65%
    12:00 +23°C° 0 mm 6 mps 756 mmHg 61%
    13:00 +24°C° 0 mm 6 mps 756 mmHg 58%
    14:00 +24°C° 0 mm 6 mps 756 mmHg 57%
    15:00 +23°C° 0 mm 6 mps 756 mmHg 56%
    16:00 +23°C° 0 mm 6 mps 756 mmHg 55%
    17:00 +22°C° 0 mm 5 mps 756 mmHg 59%
    18:00 +21°C° 0 mm 5 mps 756 mmHg 63%
    19:00 +20°C° 0 mm 4 mps 756 mmHg 67%
    20:00 +19°C° 0 mm 4 mps 756 mmHg 69%
    21:00 +17°C° 0 mm 4 mps 756 mmHg 71%
    22:00 +15°C° 0 mm 4 mps 756 mmHg 73%
    23:00 +15°C° 0 mm 4 mps 756 mmHg 77%

    23 July, Tuesday

    Time Temperature Precipitation Wind Pressure Humidity
    00:00 +14°C° 0 mm 4 mps 756 mmHg 81%
    01:00 +13°C° 0 mm 3 mps 756 mmHg 85%
    02:00 +13°C° 0 mm 4 mps 756 mmHg 89%
    03:00 +13°C° 0 mm 4 mps 756 mmHg 93%
    04:00 +13°C° 0 mm 4 mps 756 mmHg 96%
    05:00 +14°C° 0 mm 4 mps 756 mmHg 91%
    06:00 +17°C° 0 mm 4 mps 756 mmHg 87%
    07:00 +18°C° 0 mm 4 mps 756 mmHg 82%
    08:00 +20°C° 0 mm 4 mps 756 mmHg 75%
    09:00 +21°C° 0 mm 4 mps 756 mmHg 68%
    10:00 +23°C° 0 mm 4 mps 756 mmHg 61%
    11:00 +25°C° 0 mm 4 mps 756 mmHg 58%
    12:00 +25°C° 0 mm 5 mps 756 mmHg 56%
    13:00 +26°C° 0 mm 5 mps 756 mmHg 53%
    14:00 +26°C° 0 mm 5 mps 756 mmHg 54%
    15:00 +26°C° 0 mm 5 mps 756 mmHg 54%
    16:00 +26°C° 0 mm 5 mps 755 mmHg 55%
    17:00 +25°C° 0.1 mm 4 mps 755 mmHg 62%
    18:00 +23°C° 0.1 mm 4 mps 755 mmHg 70%
    19:00 +21°C° 0.1 mm 3 mps 755 mmHg 77%
    20:00 +20°C° 0 mm 3 mps 756 mmHg 82%
    21:00 +18°C° 0 mm 2 mps 756 mmHg 87%
    22:00 +17°C° 0 mm 2 mps 756 mmHg 92%
    23:00 +16°C° 0 mm 2 mps 756 mmHg 93%

    24 July, Wednesday

    Time Temperature Precipitation Wind Pressure Humidity
    00:00 +16°C° 0 mm 2 mps 756 mmHg 94%
    01:00 +16°C° 0 mm 2 mps 756 mmHg 95%
    02:00 +16°C° 0 mm 2 mps 756 mmHg 94%
    03:00 +16°C° 0 mm 2 mps 756 mmHg 93%
    04:00 +16°C° 0 mm 2 mps 756 mmHg 93%
    05:00 +17°C° 0 mm 3 mps 757 mmHg 88%
    06:00 +18°C° 0 mm 3 mps 757 mmHg 84%
    07:00 +19°C° 0 mm 3 mps 757 mmHg 80%
    08:00 +21°C° 0 mm 3 mps 757 mmHg 72%
    09:00 +24°C° 0 mm 3 mps 757 mmHg 65%
    10:00 +25°C° 0 mm 3 mps 757 mmHg 58%
    11:00 +26°C° 0 mm 3 mps 757 mmHg 53%
    12:00 +27°C° 0 mm 3 mps 757 mmHg 49%
    13:00 +28°C° 0 mm 3 mps 757 mmHg 44%
    14:00 +28°C° 0 mm 3 mps 757 mmHg 44%
    15:00 +28°C° 0 mm 3 mps 757 mmHg 43%
    16:00 +28°C° 0 mm 3 mps 757 mmHg 43%
    17:00 +27°C° 0 mm 3 mps 757 mmHg 50%
    18:00 +25°C° 0 mm 2 mps 757 mmHg 56%
    19:00 +24°C° 0 mm 2 mps 757 mmHg 63%
    20:00 +21°C° 0 mm 2 mps 757 mmHg 67%
    21:00 +20°C° 0 mm 2 mps 757 mmHg 72%
    22:00 +19°C° 0 mm 2 mps 757 mmHg 76%
    23:00 +18°C° 0 mm 2 mps 758 mmHg 79%
    Show more